www.pogodaiklimat.ru

Погода и климат >> Архив погоды >> Швейцария >> Лауфенбург


ПОГОДА в Лауфенбурге

  • Прогноз погоды в Лауфенбурге
  • Монитор погоды в Лауфенбурге

АРХИВ ПОГОДЫ в Лауфенбурге

Время (UTC), дата Ветер
(напр.,м/с)
 
Видим.   Явления Облачность Т
(С)
Тd
(С)
f
(%)
Тe
(С)
Тes
(С)
Комфортность P
(гПа)
Po
(гПа)
Тmin
(С)
Tmax
(С)
R
(мм)
R24
(мм)
S
(см)
22 11.09 С 2
{3}
н/о н/о +16.1 +13.0 82 +16 +16 1028.5 980.3
23 11.09 З 1
{2}
н/о н/о +15.4 +13.4 88 +16 +16 1028.7 980.4
00 12.09 ЮВ 2
{5}
н/о н/о +14.8 +13.0 89 +15 +15 1029.3 980.9
01 12.09 ЮЗ 1
{2}
н/о н/о +14.5 +12.7 89 +16 +16 1029.7 981.2
02 12.09 З 1
{2}
н/о н/о +14.0 +13.1 94 +14 +14 1030.2 981.6
03 12.09 ЮЗ 2
{3}
н/о н/о +14.3 +12.8 91 +14 +14 1030.0 981.5
04 12.09 ЮЗ 2
{3}
н/о н/о +14.5 +13.0 91 +14 +14 1030.2 981.7
05 12.09 ЮЗ 1
{3}
н/о н/о +13.9 +12.9 94 +14 +14 1030.9 982.2
06 12.09 З 1
{3}
н/о н/о +13.4 +12.6 95 +13 +13 1031.3 982.5 +13.3
07 12.09 ЮЗ 1
{2}
н/о н/о +15.6 +13.2 86 +16 +16 1031.2 982.8
08 12.09 С 1
{2}
н/о н/о +17.4 +13.4 77 +18 +18 1031.4 983.3
09 12.09 В 1
{3}
н/о н/о +18.5 +13.1 71 +20 +20 1031.4 983.5
10 12.09 В 2
{4}
н/о н/о +20.2 +13.5 65 +23 +23 комфорт 1031.2 983.6
11 12.09 СВ 4
{6}
н/о н/о +20.6 +10.7 53 +23 +23 комфорт 1031.1 983.6
12 12.09 СВ 4
{7}
н/о н/о +21.3 +10.3 49 +23 +23 комфорт 1030.8 983.4
13 12.09 СВ 3
{6}
н/о н/о +21.9 +11.0 50 +24 +24 комфорт 1030.2 982.9
14 12.09 СВ 3
{6}
н/о н/о +22.4 +11.3 49 +25 +25 комфорт 1029.7 982.5
15 12.09 СВ 4
{6}
н/о н/о +22.1 +11.7 52 +24 +24 комфорт 1029.4 982.2
16 12.09 СВ 3
{6}
н/о н/о +21.8 +9.7 46 +23 +23 комфорт 1029.6 982.3
17 12.09 СВ 2
{5}
н/о н/о +20.8 +10.5 52 +23 +23 комфорт 1030.1 982.6
18 12.09 СЗ 1
{6}
н/о н/о +17.2 +13.1 77 +18 +18 1031.0 982.9 +22.5
19 12.09 ЮЗ 2
{3}
н/о н/о +15.7 +13.4 86 +16 +16 1031.8 983.4
20 12.09 З 3
{4}
н/о н/о +15.7 +13.0 84 +15 +15 1032.2 983.8
21 12.09 З 2
{4}
н/о н/о +14.1 +12.6 91 +14 +14 1032.6 983.9
22 12.09 Ю 1
{3}
н/о н/о +13.9 +12.4 91 +14 +14 1032.8 984.1
23 12.09 ЮЗ 2
{2}
н/о н/о +12.8 +12.1 96 +12 +12 1032.9 984.0
00 13.09 З 2
{4}
н/о н/о +13.2 +12.3 94 +13 +13 1032.8 983.9
01 13.09 ЮЗ 3
{4}
н/о н/о +12.4 +11.9 97 +11 +11 1032.6 983.6
02 13.09 ЮВ 1
{3}
н/о н/о +11.8 +11.3 97 +12 +12 1032.7 983.6
03 13.09 СВ 1
{4}
н/о н/о +10.9 +10.8 99 +11 +11 1033.0 983.7
04 13.09 ЮЗ 1
{1}
н/о н/о +10.7 +10.6 99 +11 +11 1033.2 983.9
05 13.09 ЮЗ 1
{2}
н/о н/о +10.7 +10.6 99 +10 +10 1033.6 984.3
06 13.09 ЮЗ 2
{4}
н/о н/о +11.2 +11.1 99 +10 +10 1033.6 984.3 +10.0
07 13.09 З 2
{3}
н/о н/о +15.0 +13.9 93 +15 +15 1032.5 984.0
08 13.09 Ю 3
{4}
н/о н/о +17.8 +13.7 77 +18 +18 1032.2 984.1
09 13.09 СВ 1
{4}
н/о н/о +19.1 +13.3 69 +21 +21 комфорт 1032.0 984.2
10 13.09 СВ 2
{3}
н/о н/о +20.6 +13.9 65 +24 +24 комфорт 1031.5 983.9
11 13.09 В 2
{4}
н/о н/о +21.8 +14.7 64 +25 +25 комфорт 1030.7 983.4
12 13.09 СВ 3
{6}
н/о н/о +22.5 +13.1 55 +25 +25 комфорт 1030.1 982.9
13 13.09 СВ 4
{7}
н/о н/о +23.2 +12.5 51 +26 +26 жарко 1029.5 982.5
14 13.09 С 3
{8}
н/о н/о +24.3 +14.1 53 +27 +27 жарко 1028.9 982.1
15 13.09 С 3
{8}
н/о н/о +24.5 +14.2 53 +27 +27 жарко 1028.5 981.7
16 13.09 С 2
{5}
н/о н/о +24.4 +14.6 54 +27 +27 жарко 1028.5 981.7
17 13.09 СВ 2
{4}
н/о н/о +22.3 +14.6 62 +26 +26 жарко 1028.8 981.7
18 13.09 СЗ 1
{8}
н/о н/о +18.0 +15.3 84 +19 +19 1029.8 981.9 +24.6
19 13.09 Ю 2
{2}
н/о н/о +16.4 +15.0 91 +17 +17 1030.6 982.4
20 13.09 ЮЗ 2
{2}
н/о н/о +15.1 +13.9 93 +15 +15 1031.1 982.6
21 13.09 ЮЗ 1
{3}
н/о н/о +14.9 +14.0 94 +16 +16 1031.1 982.6
22 13.09 В 1
{2}
н/о н/о +13.9 +13.4 97 +14 +14 1031.3 982.6
23 13.09 ЮЗ 1
{2}
н/о н/о +13.0 +12.7 98 +13 +13 1031.5 982.7
00 14.09 ЮЗ 1
{3}
н/о н/о +13.5 +13.4 99 +14 +14 1031.6 982.8
01 14.09 Ю 1
{2}
н/о н/о +12.1 +12.0 99 +13 +13 1031.5 982.5
02 14.09 ЮЗ 1
{2}
н/о н/о +11.9 +11.8 99 +12 +12 1031.2 982.2
03 14.09 ЮЗ 1
{2}
н/о н/о +10.9 +10.8 99 +11 +11 1031.1 981.9
04 14.09 В 1
{2}
н/о н/о +10.9 +10.8 99 +11 +11 1030.7 981.5
05 14.09 З 1
{1}
н/о н/о +10.0 +9.9 99 +10 +10 1031.3 981.9
06 14.09 Ю 1
{2}
н/о н/о +11.1 +11.0 99 +12 +12 1031.3 982.1 +10.0
07 14.09 СВ 1
{1}
н/о н/о +14.0 +13.9 99 +15 +15 1031.0 982.4
08 14.09 ЮВ 1
{2}
н/о н/о +16.3 +16.2 99 +17 +17 1030.6 982.4
09 14.09 ЮЗ 1
{2}
н/о н/о +18.7 +15.6 82 +21 +21 комфорт 1030.0 982.2
10 14.09 СВ 2
{4}
н/о н/о +20.1 +15.0 72 +23 +23 комфорт 1029.2 981.7
11 14.09 СВ 2
{5}
н/о н/о +20.8 +15.4 71 +25 +25 комфорт 1028.4 981.0
12 14.09 СВ 2
{5}
н/о н/о +22.3 +16.0 68 +26 +26 жарко 1027.2 980.1
13 14.09 СВ 4
{6}
н/о н/о +23.5 +17.1 67 +27 +27 душно 1026.5 979.7
14 14.09 В 2
{6}
н/о н/о +24.0 +18.0 69 +28 +28 душно 1026.0 979.3
15 14.09 В 2
{6}
н/о н/о +23.6 +18.0 71 +28 +28 душно 1025.8 979.0
16 14.09 СВ 2
{4}
н/о н/о +23.1 +17.7 72 +29 +29 очень
душно
1025.9 979.0
17 14.09 В 1
{3}
н/о н/о +21.5 +17.4 77 +26 +26 душно 1026.5 979.3
18 14.09 В 1
{6}
н/о н/о +18.8 +17.4 92 +22 +22 комфорт 1027.2 979.5 +24.2
19 14.09 ЮЗ 2
{3}
н/о н/о +17.4 +16.9 97 +18 +18 1027.3 979.4
20 14.09 СЗ 1
{3}
н/о н/о +16.8 +16.2 96 +18 +18 1027.3 979.3
21 14.09 ЮЗ 1
{3}
н/о н/о +15.8 +15.7 99 +16 +16 1027.7 979.5
22 14.09 ЮЗ 1
{2}
н/о н/о +14.8 +14.7 99 +16 +16 1027.6 979.3
23 14.09 Ю 1
{1}
н/о н/о +13.8 +13.7 99 +15 +15 1027.4 978.9
00 15.09 З 1
{3}
н/о н/о +13.2 +13.1 99 +14 +14 1027.4 978.8
01 15.09 ЮЗ 1
{2}
н/о н/о +12.5 +12.4 99 +12 +12 1027.1 978.4
02 15.09 З 1
{2}
н/о н/о +12.1 +12.0 99 +12 +12 1027.2 978.4
03 15.09 ЮЗ 1
{2}
н/о н/о +12.1 +12.0 99 +12 +12 1026.9 978.1
04 15.09 ЮЗ 1
{3}
н/о н/о +12.2 +12.1 99 +13 +13 1027.0 978.2
05 15.09 З 1
{2}
н/о н/о +12.1 +12.0 99 +13 +13 1027.2 978.4
06 15.09 ЮЗ 1
{3}
н/о н/о +12.3 +12.2 99 +13 +13 1027.4 978.6 +11.2
07 15.09 З 1
{2}
н/о н/о +14.4 +14.3 99 +15 +15 1026.7 978.3
08 15.09 СВ 1
{3}
н/о н/о +16.6 +16.5 99 +17 +17 1026.2 978.2
09 15.09 В 1
{3}
н/о н/о +19.4 +15.1 76 +22 +22 комфорт 1025.4 977.9
10 15.09 СВ 1
{3}
н/о н/о +21.4 +15.2 68 +25 +25 комфорт 1024.8 977.7
11 15.09 СВ 3
{6}
н/о н/о +21.8 +17.1 75 +26 +26 душно 1024.2 977.2
12 15.09 СВ 4
{6}
н/о н/о +22.6 +17.3 72 +27 +27 душно 1023.6 976.7
13 15.09 СВ 4
{6}
н/о н/о +23.4 +17.3 69 +29 +29 душно 1022.9 976.2
14 15.09 СВ 3
{5}
н/о н/о +24.0 +17.7 68 +28 +28 душно 1022.1 975.5
15 15.09 С 3
{6}
н/о н/о +24.6 +18.0 67 +29 +29 душно 1021.2 974.8
16 15.09 С 2
{4}
н/о н/о +24.6 +18.2 68 +29 +29 душно 1020.8 974.4
17 15.09 СВ 1
{2}
н/о н/о +23.9 +18.7 73 +29 +29 душно 1020.6 974.1
18 15.09 З 1
{6}
н/о н/о +19.9 +19.0 95 +24 +24 комфорт 1021.5 974.3 +24.7
19 15.09 ЮЗ 2
{3}
н/о н/о +18.0 +17.3 96 +19 +19 1022.2 974.6
20 15.09 З 2
{3}
н/о н/о +17.1 +16.1 94 +18 +18 1022.6 974.9
21 15.09 ЮЗ 2
{3}
н/о н/о +16.7 +15.4 92 +17 +17 1022.7 974.9
22 15.09 Ю 2
{3}
н/о н/о +16.6 +16.0 96 +17 +17 1022.8 975.0
23 15.09 З 2
{4}
н/о н/о +15.8 +15.6 99 +16 +16 1023.1 975.1
00 16.09 З 2
{4}
н/о н/о +14.5 +14.4 99 +14 +14 1023.2 975.0
01 16.09 З 2
{3}
н/о н/о +14.8 +14.7 99 +14 +14 1022.9 974.8
02 16.09 ЮЗ 3
{4}
н/о н/о +15.6 +14.9 96 +15 +15 1022.3 974.3
03 16.09 З 1
{4}
н/о н/о +14.2 +14.1 99 +14 +14 1022.2 974.0
04 16.09 З 2
{3}
н/о н/о +13.7 +13.5 99 +13 +13 1021.8 973.5
05 16.09 З 1
{3}
н/о н/о +14.2 +13.9 98 +15 +15 1021.5 973.3
06 16.09 З 1
{4}
н/о н/о +15.1 +14.4 96 +16 +16 1021.3 973.3 +13.3
07 16.09 СВ 1
{4}
н/о н/о +17.7 +15.3 86 +19 +19 1021.2 973.6
08 16.09 СЗ 1
{3}
н/о н/о +19.8 +15.8 78 +23 +23 комфорт 1020.8 973.6
09 16.09 СВ 2
{4}
н/о н/о +21.0 +15.8 72 +25 +25 комфорт 1020.6 973.6
10 16.09 СВ 2
{4}
н/о н/о +22.5 +15.4 64 +26 +26 жарко 1020.0 973.3
11 16.09 З 1
{3}
н/о н/о +24.2 +16.1 61 +28 +28 душно 1019.1 972.7
12 16.09 СВ 2
{4}
н/о н/о +25.5 +16.3 57 +29 +29 душно 1018.0 971.9
13 16.09 СВ 3
{4}
н/о н/о +26.3 +16.2 54 +30 +30 душно 1017.3 971.3
14 16.09 СВ 3
{4}
н/о н/о +26.7 +16.3 53 +30 +30 душно 1016.8 970.9
15 16.09 СВ 3
{5}
н/о н/о +26.8 +16.6 54 +30 +30 душно 1016.5 970.6
16 16.09 СВ 1
{4}
н/о н/о +26.4 +17.0 56 +30 +30 душно 1016.1 970.2
17 16.09 С 1
{2}
н/о н/о +25.2 +17.7 63 +29 +29 душно 1016.4 970.3
18 16.09 ЮЗ 2
{5}
н/о н/о +20.5 +18.0 86 +25 +25 комфорт 1017.4 970.5 +27.0
19 16.09 Ю 1
{3}
н/о н/о +19.0 +16.8 87 +22 +22 комфорт 1017.9 970.7
20 16.09 ЮЗ 1
{2}
н/о н/о +17.9 +17.0 94 +20 +20 1018.2 970.8
21 16.09 ЮЗ 2
{4}
н/о н/о +18.4 +15.6 84 +20 +20 1018.2 970.9
22 16.09 В 2
{4}
н/о н/о +17.8 +15.7 88 +19 +19 1018.4 971.0
23 16.09 З 2
{2}
н/о н/о +15.9 +15.1 95 +16 +16 1018.4 970.7
00 17.09 Ю 1
{4}
н/о н/о +15.9 +15.5 97 +17 +17 1018.3 970.6
01 17.09 ЮЗ 1
{3}
н/о н/о +15.1 +14.8 98 +16 +16 1018.5 970.6
02 17.09 Ю 1
{3}
н/о н/о +14.6 +14.5 99 +16 +16 1018.4 970.5
03 17.09 З 1
{3}
н/о н/о +14.0 +13.9 99 +14 +14 1018.7 970.6
04 17.09 ЮВ 1
{2}
н/о н/о +13.5 +13.4 99 +14 +14 1018.6 970.5
05 17.09 ЮЗ 1
{2}
н/о н/о +13.1 +13.0 99 +13 +13 1018.8 970.6
06 17.09 С 1
{3}
н/о н/о +14.1 +14.0 99 +15 +15 1019.1 971.0 +12.9
07 17.09 З 1
{2}
н/о н/о +16.4 +16.3 99 +17 +17 1018.9 971.2
08 17.09 С 2
{3}
н/о н/о +18.7 +16.7 88 +21 +21 комфорт 1018.6 971.3
09 17.09 СВ 2
{4}
н/о н/о +20.1 +16.5 80 +24 +24 комфорт 1018.3 971.3
10 17.09 СВ 3
{6}
н/о н/о +21.0 +15.3 70 +25 +25 комфорт 1018.2 971.3
11 17.09 СВ 4
{6}
н/о н/о +21.5 +14.2 63 +24 +24 комфорт 1017.8 971.0
12 17.09 СВ 4
{8}
н/о н/о +22.3 +12.6 54 +25 +25 комфорт 1017.2 970.6
13 17.09 СВ 5
{8}
н/о н/о +22.6 +11.8 50 +25 +25 комфорт 1016.8 970.3
14 17.09 СВ 3
{8}
н/о н/о +22.9 +13.0 54 +26 +26 жарко 1016.7 970.2
15 17.09 В 2
{8}
н/о н/о +23.4 +12.5 50 +26 +26 жарко 1016.3 969.9
16 17.09 С 3
{5}
н/о н/о +22.5 +12.2 52 +25 +25 комфорт 1016.4 969.9
17 17.09 СВ 2
{4}
н/о н/о +20.6 +12.8 61 +24 +24 комфорт 1017.0 970.1
18 17.09 ЮЗ 1
{8}
н/о н/о +17.7 +14.1 79 +19 +19 1017.9 970.5 +23.4
19 17.09 СВ 2
{4}
н/о н/о +18.5 +14.8 79 +20 +20 1018.6 971.3
20 17.09
{9}
н/о н/о +19.0 +13.5 70 1019.4 972.1
21 17.09 С 4
{9}
н/о н/о +18.3 +12.8 70 +18 +18 1020.0 972.6
22 17.09 С 4
{8}
н/о н/о +17.5 +12.1 71 +17 +17 1020.4 972.8
23 17.09 С 4
{7}
н/о н/о +16.8 +11.4 70 +16 +16 1020.5 972.8
00 18.09 С 5
{9}
н/о н/о +16.3 +9.5 64 +15 +15 1020.6 972.8
01 18.09 С 4
{8}
н/о н/о +15.6 +10.1 70 +15 +15 1020.9 973.0
02 18.09 С 3
{6}
н/о н/о +15.3 +9.8 70 +15 +15 1020.9 973.0
03 18.09 С 4
{8}
н/о н/о +14.7 +9.7 72 +14 +14 1021.5 973.4
04 18.09 С 4
{7}
н/о н/о +14.0 +8.7 70 +13 +13 1021.6 973.4
05 18.09 С 3
{5}
н/о н/о +13.3 +7.9 70 +12 +12 1021.8 973.5
06 18.09 СВ 2
{8}
н/о н/о +13.3 +8.7 74 +13 +13 1022.0 973.7 +12.9
07 18.09 СВ 2
{3}
н/о н/о +13.8 +9.3 74 +14 +14 1022.2 973.9
08 18.09 В 2
{4}
н/о н/о +14.4 +9.0 70 +14 +14 1022.4 974.2
09 18.09 СВ 3
{5}
н/о н/о +14.6 +8.9 69 +14 +14 1022.3 974.2
10 18.09
{6}
н/о н/о +15.1 +9.7 70 1022.3 974.3
11 18.09 С 4
{7}
н/о н/о +15.8 +9.4 66 +15 +15 1021.9 974.0
12 18.09 С 4
{7}
н/о н/о +16.7 +9.9 64 +16 +16 1021.5 973.8
13 18.09 С 3
{7}
н/о н/о +17.6 +10.1 61 +18 +18 1021.2 973.6
14 18.09 С 3
{6}
н/о н/о +18.2 +9.7 58 +19 +19 1020.8 973.3
15 18.09 С 3
{7}
н/о н/о +17.7 +9.7 59 +18 +18 1020.7 973.2
16 18.09 С 3
{7}
н/о н/о +17.5 +9.8 61 +17 +17 1020.8 973.2
17 18.09 С 3
{7}
н/о н/о +16.5 +8.7 60 +16 +16 1021.1 973.3
18 18.09 С 4
{8}
н/о н/о +15.7 +7.8 59 +15 +15 1021.7 973.8 +18.3
19 18.09 С 3
{7}
н/о н/о +15.3 +7.3 59 +15 +15 1022.5 974.5
20 18.09 СЗ 1
{5}
н/о н/о +13.9 +7.4 65 +14 +14 1023.0 974.7
21 18.09 С 1
{7}
н/о н/о +13.8 +7.9 68 +14 +14 1023.2 974.9
22 18.09 СВ 1
{2}
н/о н/о +13.0 +8.3 73 +13 +13 1023.7 975.2
23 18.09 СВ 2
{5}
н/о н/о +12.1 +6.7 70 +12 +12 1023.9 975.3

 

Местоположение метеостанции Лауфенбург (Швейцария): широта 47.55 долгота 8.05 высота над уровнем моря 322 м.

В архиве по умолчанию представлена погода в Лауфенбурге за последнюю неделю. Архивные данные за месяц целиком и за предыдущие месяцы, начиная с января 2011 года, Вы можете получить, выбрав интересующий диапазон дат из раскрывающегося списка и нажав кнопку "Ввод!".


*Определитесь, кто Вы:
робот инопланетянин человек

Внимание! Время в таблицах - всемирное. Для получения местного времени необходимо прибавить поправку, которая равна 1 ч.

Смотрите также архив погоды в соседних городах и на ближайших метеорологических станциях:

Погода в Лайбштадте (Швейцария) (11 км)
Погода в Бругг-Вилдегге (Швейцария) (13 км)
Погода в Мёлине (Швейцария) (13 км)
Погода на Бецнау (Швейцария) (14 км)
Погода в Институте Пауля Шеррера (Швейцария) (14 км)
Погода в Рюненберге (Швейцария) (18 км)
Погода в Рейнфельдене (Швейцария) (19 км)
Погода в Букс-Зуре (Швейцария) (19 км)
Погода в Госгене (Швейцария) (22 км)
Погода на Легерне (Швейцария) (27 км)

Пояснения к столбцам:

Ветер - указаны скорость ветра в м/с - средняя за 10 мин, порывы в срок и между сроками (в фигурных скобках) и направление, откуда дует ветер: С - северный, СВ - северо-восточный, В - восточный, ЮВ - юго-восточный, Ю - южный, ЮЗ - юго-западный, З - западный, СЗ - северо-западный.
Видимость - горизонтальная дальность видимости в метрах или километрах. При видимости от 1 до 10 км при отсутствии осадков обычно наблюдается дымка, при ухудшении видимости до 1 км и менее - туман. В сухую погоду видимость может ухудшаться дымом, пылью или мглою.
Явления - указаны атмосферные явления, наблюдавшиеся в срок или в последний час перед сроком; фигурными скобками обозначены явления, наблюдавшиеся между сроками (за 1-3 часа до срока); квадратными скобками обозначены град или гололедные отложения с указанием их диаметра в мм.
Облачность - указаны через наклонную черту общая и нижняя облачность в баллах и высота нижней границы облаков в метрах; квадратными скобками обозначены формы облаков: Ci - перистые, Cs - перисто-слоистые, Cc - перисто-кучевые, Ac - высококучевые, As - высокослоистые, Sc - слоисто-кучевые, Ns - слоисто-дождевые, Cu - кучевые, Cb - кучево-дождевые. Подробнее классификацию облаков см. в Атласе облаков (PDF).
T - Температура воздуха - температура, измеренная на высоте 2 м над землей.
Td - Температура точки росы - температура, при понижении до которой содержащийся в воздухе водяной пар достигнет насыщения.
f - Относительная влажность воздуха - влажноcть воздуха, измеренная на высоте 2 м над землей.
Te - Эффективная температура - температура, которую ощущает одетый по сезону человек в тени. Характеристика душности погоды. При расчете учитывается влияние влажности воздуха и скорости ветра на теплоощущения человека.
Tes - Эффективная температура на солнце - температура, которую ощущает человек, с поправкой на солнечный нагрев. Характеристика знойности погоды. Зависит от высоты солнца над горизонтом, облачности и скорости ветра. Ночью, в пасмурную погоду, а также при ветре 12 м/с и более поправка равна нулю.
P - Атмосферное давление - приведенное к уровню моря атмосферное давление.
Po - Атмосферное давление - измеренное на уровне метеостанции атмосферное давление.
Tmin - Минимальная температура - минимум температуры воздуха на высоте 2 м над землей.
Tmax - Максимальная температура - максимум температуры воздуха на высоте 2 м над землей.
R - Количество осадков - Количество выпавших осадков за период времени, мм. При наведении курсора мыши на число - период времени, за который выпало указанное количество осадков.
R24 - Количество осадков - Количество выпавших осадков за 24 часа, мм.
S - Снежный покров - Высота снежного покрова, см. При наведении курсора мыши на число - состояние снежного покрова и степень покрытия местности в баллах.